User: anonymous   Login
Location: Brno
(49.2000°N, 16.6330°E)
Time: 14:09:53
(UTC+02:00)
Language:

Meteor 1-4 Rocket - Orbit

View from above orbital plane
View from above orbital plane
View from above satellite
View from above satellite

Ground track
Ground track

The orbit data is extracted from the following two-line orbital elements,

1 04394U 70037B   16207.56142087  .00001772  00000-0  63877-4 0  9998
2 04394  81.2415  38.0484 0042292 157.1157 203.1975 15.27096381514904
Epoch (UTC): 25 July 2016 13:28:26
Eccentricity: 0.0042292
inclination: 81.2415°
perigee height: 455 km
apogee height: 513 km
right ascension of ascending node: 38.0484°
argument of perigee: 157.1157°
revolutions per day: 15.27096381
mean anomaly at epoch: 203.1975°
orbit number at epoch: 51490

The dashed part of the orbit path shows where the satellite is in the earth's shadow,  

DLR